| time (UTC) | temp F | wind direction | speed MPH | gust MPH | rain 1hr in | rain 24hr in | rain mn in | humidity % | barometer mb |
| 20260504181557 | 36 | 242 | 14.0 | 24.0 | 0.01 | 0.02 | 0.02 | 99 | 1003.6 |
| 20260504180059 | 36 | 253 | 13.0 | 29.0 | 0.01 | 0.02 | 0.02 | 99 | 1003.5 |
| 20260504174554 | 36 | 276 | 12.0 | 23.0 | 0.01 | 0.02 | 0.02 | 99 | 1003.5 |
| 20260504173054 | 36 | 275 | 9.0 | 22.0 | 0.01 | 0.02 | 0.02 | 99 | 1003.6 |
| 20260504171557 | 36 | 261 | 13.0 | 24.0 | 0.00 | 0.01 | 0.01 | 99 | 1003.5 |
| 20260504081556 | 28 | 290 | 8.0 | 17.0 | 0.00 | 0.01 | 0.00 | 82 | 1003.3 |
| 20260504080106 | 28 | 271 | 6.0 | 15.0 | 0.00 | 0.01 | 0.00 | 82 | 1003.2 |
| 20260504050105 | 27 | 117 | 5.0 | 15.0 | 0.00 | 0.01 | 0.00 | 86 | 1002.5 |
| 20260504044600 | 28 | 236 | 7.0 | 17.0 | 0.00 | 0.01 | 0.00 | 86 | 1002.7 |
| 20260504043055 | 27 | 151 | 7.0 | 16.0 | 0.00 | 0.01 | 0.00 | 86 | 1002.6 |
| 20260504041601 | 28 | 134 | 6.0 | 12.0 | 0.00 | 0.01 | 0.00 | 86 | 1002.6 |
| 20260504040057 | 28 | 99 | 6.0 | 17.0 | 0.00 | 0.01 | 0.00 | 86 | 1002.5 |
| 20260504034557 | 27 | 346 | 7.0 | 14.0 | 0.00 | 0.01 | 0.01 | 87 | 1002.2 |
| 20260504033054 | 27 | 129 | 7.0 | 16.0 | 0.00 | 0.01 | 0.01 | 87 | 1002.0 |
| 20260504031553 | 27 | 155 | 6.0 | 14.0 | 0.00 | 0.01 | 0.01 | 87 | 1002.1 |
| 20260504030100 | 27 | 288 | 7.0 | 16.0 | 0.00 | 0.01 | 0.01 | 86 | 1002.2 |
| 20260504024617 | 27 | 313 | 7.0 | 16.0 | 0.00 | 0.01 | 0.01 | 86 | 1002.1 |
| 20260504023059 | 27 | 171 | 7.0 | 17.0 | 0.00 | 0.01 | 0.01 | 86 | 1002.2 |
| 20260504021557 | 27 | 42 | 6.0 | 15.0 | 0.00 | 0.01 | 0.01 | 86 | 1002.3 |
| 20260504020057 | 27 | 118 | 7.0 | 15.0 | 0.00 | 0.01 | 0.01 | 87 | 1002.2 |
| 20260504014601 | 28 | 129 | 7.0 | 16.0 | 0.00 | 0.01 | 0.01 | 86 | 1002.2 |
| 20260504013058 | 28 | 104 | 8.0 | 17.0 | 0.00 | 0.01 | 0.01 | 86 | 1002.2 |
| 20260504011555 | 27 | 273 | 6.0 | 21.0 | 0.00 | 0.01 | 0.01 | 87 | 1002.2 |
| 20260504010057 | 27 | 155 | 7.0 | 16.0 | 0.00 | 0.01 | 0.01 | 86 | 1002.3 |
| 20260504004554 | 28 | 145 | 8.0 | 22.0 | 0.00 | 0.01 | 0.01 | 85 | 1001.8 |
| 20260504003057 | 28 | 191 | 8.0 | 20.0 | 0.00 | 0.01 | 0.01 | 85 | 1001.6 |
| 20260504001554 | 28 | 57 | 8.0 | 16.0 | 0.00 | 0.01 | 0.01 | 85 | 1001.6 |
| 20260504000128 | 29 | 164 | 8.0 | 15.0 | 0.00 | 0.01 | 0.01 | 83 | 1001.5 |
| 20260503234601 | 29 | 79 | 9.0 | 21.0 | 0.00 | 0.01 | 0.01 | 82 | 1001.3 |
| 20260503233053 | 30 | 77 | 9.0 | 25.0 | 0.00 | 0.01 | 0.01 | 80 | 1001.2 |
| 20260503231553 | 30 | 253 | 9.0 | 22.0 | 0.00 | 0.01 | 0.01 | 80 | 1001.2 |
| 20260503230054 | 30 | 256 | 7.0 | 14.0 | 0.00 | 0.01 | 0.01 | 81 | 1001.3 |
| 20260503224556 | 30 | 300 | 8.0 | 20.0 | 0.00 | 0.01 | 0.01 | 80 | 1001.1 |
| 20260503223057 | 31 | 107 | 8.0 | 20.0 | 0.00 | 0.01 | 0.01 | 79 | 1001.0 |
| 20260503221558 | 31 | 127 | 9.0 | 22.0 | 0.00 | 0.01 | 0.01 | 80 | 1000.9 |
| 20260503220056 | 31 | 104 | 8.0 | 23.0 | 0.00 | 0.01 | 0.01 | 80 | 1000.8 |
| 20260503214552 | 31 | 248 | 8.0 | 19.0 | 0.00 | 0.01 | 0.01 | 81 | 1000.8 |
| 20260503213107 | 31 | 106 | 7.0 | 17.0 | 0.00 | 0.01 | 0.01 | 81 | 1001.1 |
| 20260503211613 | 31 | 158 | 8.0 | 22.0 | 0.00 | 0.01 | 0.01 | 80 | 1001.1 |
| 20260503210055 | 32 | 111 | 9.0 | 18.0 | 0.00 | 0.01 | 0.01 | 81 | 1000.9 |
| 20260503204555 | 32 | 224 | 9.0 | 25.0 | 0.00 | 0.01 | 0.01 | 81 | 1000.6 |
| 20260503203107 | 32 | 194 | 10.0 | 21.0 | 0.00 | 0.01 | 0.01 | 83 | 1000.7 |
| 20260503201556 | 32 | 210 | 8.0 | 20.0 | 0.00 | 0.01 | 0.01 | 84 | 1000.9 |
| 20260503200053 | 32 | 250 | 8.0 | 16.0 | 0.00 | 0.01 | 0.01 | 86 | 1000.9 |
| 20260503194603 | 32 | 5 | 8.0 | 17.0 | 0.00 | 0.02 | 0.01 | 88 | 1001.1 |
| 20260503193058 | 32 | 98 | 7.0 | 17.0 | 0.00 | 0.02 | 0.01 | 90 | 1001.3 |
| 20260503191559 | 32 | 223 | 8.0 | 16.0 | 0.00 | 0.02 | 0.01 | 90 | 1001.0 |
| 20260503190056 | 32 | 152 | 8.0 | 18.0 | 0.00 | 0.02 | 0.01 | 93 | 1001.1 |
| 20260503184555 | 33 | 57 | 8.0 | 19.0 | 0.00 | 0.02 | 0.01 | 94 | 1001.2 |
| 20260503183053 | 32 | 65 | 10.0 | 16.0 | 0.00 | 0.02 | 0.01 | 93 | 1001.1 |